#timestamp,LO_Frequency,Hit,StdDev 
1560805215.1,286046997.3,N
1560805235.8,286046996.5,N
1560805255.7,286046999.5,N
1560805275.5,286046999.4,N
1560805295.4,286046996.9,N
1560805315.2,286047001.1,N
1560805335.0,286047001.0,N
1560805335.9,286047001.0,N
1560805355.8,286047000.6,N
1560805375.6,286047000.8,N
1560805395.5,286046998.1,N
1560805415.3,286046998.4,N
1560805435.1,286047000.7,N
1560805455.9,286047000.0,N
1560805475.7,286046999.7,N
1560805495.5,286047002.8,N
1560805515.4,286047002.3,N
1560805535.2,286047001.5,N
1560805555.0,286047004.4,N
1560805556.0,286047004.4,N
1560805575.8,286047003.2,N
1560805595.6,286047004.3,N
1560805615.5,286047002.4,N
1560805635.3,286047002.5,N
1560805655.1,286047001.8,N
1560805675.9,286047001.5,N
1560805695.7,286046999.8,N
1560805715.5,286047000.8,N
1560805735.4,286047000.4,N
1560805755.2,286047002.8,N
1560805775.1,286046999.7,N
1560805776.0,286046999.7,N
1560805795.8,286047000.4,N
1560805815.6,286047000.6,N
1560805835.5,286047000.9,N
1560805855.3,286047000.2,N
1560805875.1,286047000.8,N
1560805895.9,286047002.3,N
1560805915.7,286047001.2,N
1560805935.6,286046998.1,N
1560805955.4,286047000.6,N
1560805975.2,286047002.3,N
1560805995.1,286047000.5,N
1560805996.0,286047000.5,N
1560806015.8,286047000.1,N
1560806035.7,286047000.3,N
1560806055.5,286047000.5,N
1560806075.3,286047002.8,N
1560806095.2,286047002.4,N
1560806115.0,286046998.8,N
1560806115.9,286046998.8,N
1560806135.7,286047001.5,N
1560806155.6,286047002.6,N
1560806175.4,286047001.9,N
1560806195.3,286047002.0,N
1560806215.1,286047000.2,N
1560806216.0,286047000.2,N
1560806235.8,286047002.5,N
1560806255.7,286047004.4,Y
1560806275.5,286046998.6,P
1560806295.3,286046998.5,N
1560806315.2,286046998.1,N
1560806335.0,286046999.2,N
1560806335.9,286046999.2,N
1560806355.8,286047000.3,N
1560806375.6,286046998.1,N
1560806395.4,286047000.8,N
1560806415.3,286047000.5,N
1560806435.1,286047000.0,N
1560806455.8,286047000.4,N
1560806475.7,286047000.9,N
1560806495.5,286047000.7,N
1560806515.4,286046998.1,N
1560806535.2,286046999.1,N
1560806555.0,286046998.8,N
1560806555.9,286046998.8,N
1560806575.8,286047000.3,N
1560806595.6,286047000.7,N
1560806615.5,286046998.8,N
1560806635.3,286046998.5,N
1560806655.1,286047000.7,N
1560806675.9,286047002.7,N
1560806695.7,286047000.1,N
1560806715.5,286046999.8,N
1560806735.4,286047001.2,N
1560806755.2,286046998.5,N
1560806775.1,286046998.7,N
1560806776.0,286046998.7,N
1560806795.8,286047002.3,N
1560806815.6,286047002.7,N
1560806835.5,286046999.7,N
1560806855.3,286047002.6,N
1560806875.2,286047001.5,N
1560806895.9,286047000.2,N
1560806915.7,286047000.7,N
1560806935.6,286046999.9,N
1560806955.4,286046999.3,N
1560806975.2,286046999.9,N
1560806995.1,286047002.7,N
1560806996.0,286047002.7,N
1560807015.8,286047002.8,N
1560807035.7,286047000.5,N
1560807055.5,286046999.8,N
1560807075.3,286047002.1,N
1560807095.2,286047002.4,N
1560807115.0,286047002.7,N
1560807115.9,286047002.7,N
1560807135.7,286047002.2,N
1560807155.6,286047004.3,N
1560807175.4,286047004.3,N
1560807195.3,286047002.3,N
1560807215.1,286047000.6,N
1560807216.0,286047000.6,N
1560807235.8,286047001.0,N
1560807255.7,286046996.5,N
1560807275.5,286047000.6,N
1560807295.3,286047002.3,N
1560807315.2,286047001.6,N
1560807335.0,286047004.2,N
1560807335.9,286047004.2,N
1560807355.8,286047004.3,N
1560807375.6,286047001.7,N
1560807395.4,286047002.0,N
1560807415.3,286047001.3,N
1560807435.1,286047001.3,N
1560807455.8,286047004.1,N
1560807475.7,286047002.0,N
1560807495.5,286047000.2,N
1560807515.4,286046998.1,N
1560807535.2,286047001.0,N
1560807555.0,286047000.2,N
1560807555.9,286047000.2,N
1560807575.8,286047002.5,N
1560807595.6,286047002.8,N
1560807615.4,286047002.8,N
1560807635.3,286047004.4,N
1560807655.1,286047003.9,N
1560807675.9,286047003.9,N
1560807695.7,286047002.9,N
1560807715.5,286047003.1,N
1560807735.4,286047003.5,N
1560807755.2,286047005.8,Y
1560807775.0,286047003.5,P
1560807776.0,286047003.5,P
1560807795.8,286047003.5,P
1560807815.6,286047001.5,N
1560807835.5,286047003.6,Y
1560807855.3,286047000.3,P
1560807875.1,286047001.0,N
1560807895.9,286047000.4,N
1560807915.7,286046999.0,N
1560807935.6,286046998.3,N
1560807955.4,286046998.1,N
1560807975.2,286047001.2,N
1560807995.1,286047000.6,N
1560807996.0,286047000.6,N
1560808015.8,286046996.6,N
1560808035.6,286046997.3,N
1560808055.5,286046999.5,N
1560808075.3,286046997.4,N
1560808095.2,286046997.8,N
1560808115.9,286046997.2,N
1560808135.7,286046997.6,N
1560808155.6,286046995.7,N
1560808175.4,286046994.9,N
1560808195.2,286046993.8,Y
1560808215.1,286046999.5,P
1560808216.0,286046999.5,N
1560808235.8,286046995.5,P
1560808255.7,286046995.3,N
1560808275.5,286046998.0,N
1560808295.3,286046997.9,N
1560808315.2,286046994.9,Y
1560808335.0,286046998.9,P
1560808335.9,286046998.9,N
1560808355.7,286046998.4,P
1560808375.6,286046998.2,Y
1560808395.4,286047000.6,P
1560808415.3,286046999.9,N
1560808435.1,286046999.8,N
1560808455.8,286047000.5,N
1560808475.7,286047000.6,N
1560808495.5,286046996.9,Y
1560808515.4,286046996.7,P
1560808535.2,286046996.6,N
1560808555.0,286046999.2,N
1560808555.9,286046999.2,N
1560808575.8,286047001.1,N
1560808595.6,286047000.3,N
1560808615.4,286047002.7,N
1560808635.3,286047000.0,N
1560808655.1,286047002.7,N
1560808675.9,286047002.3,N
1560808695.7,286047001.9,N
1560808715.5,286047001.7,N
1560808735.4,286047001.7,N
1560808755.2,286047001.8,N
1560808775.0,286047002.7,N
1560808775.9,286047002.7,N
1560808795.8,286047004.0,N
